Weather History for KAAA - January, 2014

Change the Weather History Date:

Monday, January 6, 2014

  Actual Average (KSPI) Record (KSPI)
Temperature  
Mean Temperature -6 °F 27 °F  
Max Temperature -2 °F 35 °F 68 °F (1907)
Min Temperature -11 °F 19 °F -14 °F (1970)
Degree Days  
Heating Degree Days 72 38  
Month to date heating degree days 228  
Since 1 July heating degree days 2368  
Cooling Degree Days 0 0  
Month to date cooling degree days 0  
Year to date cooling degree days 0  
Moisture  
Dew Point -18 °F    
Average Humidity 60    
Maximum Humidity 69    
Minimum Humidity 51    
Precipitation  
Precipitation 0.00 in 0.06 in 1.64 in (1888)
Month to date precipitation 0.41  
Year to date precipitation 0.41  
Snow  
Snow 0.00 in 0.20 in 6.20 in (1962)
Month to date snowfall 1.3  
Since 1 July snowfall 7.5  
Snow Depth -    
Sea Level Pressure  
Sea Level Pressure 30.40 in    
Wind  
Wind Speed 11 mph (West)    
Max Wind Speed 21 mph    
Max Gust Speed 29 mph    
Visibility 10 miles    
Events      
T = Trace of Precipitation, MM = Missing Value Source: NWS Daily Summary

Daily Weather History Graph

Daily Weather History Graph

Search for Another Location

Airport or City:

Trip Planner

Search our weather history database for the weather conditions in past years. The results will help you decide how hot, cold, wet, or windy it might be!

Date:

Astronomy

Jan. 06, 2014 Rise Set
Actual Time 7:19 AM CST 4:46 PM CST
Civil Twilight 6:49 AM CST 5:17 PM CST
Nautical Twilight 6:15 AM CST 5:51 PM CST
Astronomical Twilight 5:42 AM CST 6:23 PM CST
Moon 10:34 AM CST (1/6) 11:20 PM CST (1/6)
Length of Visible Light 10h 27m
Length of Day
9h 27m
Waxing Crescent, 35% of the Moon is Illuminated
Jan 6
Waxing Crescent
Jan 7
First Quarter
Jan 15
Full
Jan 23
Last Quarter
Jan 30
New

Hourly Weather History & Observations

Time (CST) Temp. Windchill Dew Point Humidity Pressure Visibility Wind Dir Wind Speed Gust Speed Precip Events Conditions
12:15 AM -2.6 °F -21.1 °F -13.2 °F 61% 30.27 in 7.0 mi NW 12.7 mph 24.2 mph N/A   Clear
12:35 AM -3.5 °F -23.8 °F -13.2 °F 63% 30.27 in 10.0 mi WNW 15.0 mph 27.6 mph N/A   Clear
12:55 AM -4.2 °F -24.0 °F -14.1 °F 63% 30.28 in 7.0 mi WNW 13.8 mph 24.2 mph N/A   Clear
1:15 AM -5.4 °F -29.5 °F -15.5 °F 62% 30.29 in 4.0 mi WNW 20.7 mph 28.8 mph N/A   Haze
1:35 AM -6.2 °F -26.5 °F -15.9 °F 63% 30.30 in 4.0 mi WNW 13.8 mph 26.5 mph N/A   Haze
1:55 AM -6.7 °F -25.5 °F -17.0 °F 61% 30.31 in 7.0 mi WNW 11.5 mph 24.2 mph N/A   Clear
2:15 AM -7.1 °F -27.6 °F -18.0 °F 59% 30.32 in 10.0 mi NW 13.8 mph 26.5 mph N/A   Scattered Clouds
2:35 AM -7.8 °F -27.7 °F -17.7 °F 62% 30.33 in 10.0 mi WNW 12.7 mph 18.4 mph N/A   Scattered Clouds
2:55 AM -8.5 °F -29.5 °F -18.6 °F 61% 30.34 in 10.0 mi WNW 13.8 mph 24.2 mph N/A   Scattered Clouds
3:15 AM -8.9 °F -26.2 °F -19.3 °F 60% 30.35 in 10.0 mi WNW 9.2 mph 19.6 mph N/A   Clear
3:35 AM -9.4 °F -30.6 °F -19.7 °F 61% 30.35 in 10.0 mi WNW 13.8 mph 23.0 mph N/A   Clear
3:55 AM -9.4 °F -30.6 °F -19.7 °F 61% 30.35 in 10.0 mi WNW 13.8 mph 23.0 mph N/A   Clear
4:15 AM -9.8 °F -28.3 °F -20.2 °F 60% 30.35 in 10.0 mi WNW 10.4 mph 18.4 mph N/A   Clear
4:35 AM -9.6 °F -29.1 °F -20.6 °F 59% 30.36 in 10.0 mi WNW 11.5 mph 21.9 mph N/A   Clear
4:55 AM -9.9 °F -28.6 °F -20.2 °F 61% 30.36 in 10.0 mi WNW 10.4 mph 21.9 mph N/A   Clear
5:15 AM -9.9 °F -27.5 °F -20.2 °F 61% 30.37 in 10.0 mi WNW 9.2 mph 19.6 mph N/A   Clear
5:35 AM -10.3 °F -27.9 °F -19.8 °F 63% 30.37 in 10.0 mi WNW 9.2 mph 17.3 mph N/A   Clear
5:55 AM -10.5 °F -30.2 °F -19.7 °F 64% 30.37 in 10.0 mi WNW 11.5 mph 17.3 mph N/A   Clear
6:15 AM -10.7 °F -28.4 °F -19.3 °F 66% 30.38 in 10.0 mi WNW 9.2 mph 16.1 mph N/A   Clear
6:35 AM -10.8 °F -26.0 °F -18.6 °F 69% 30.39 in 10.0 mi West 6.9 mph - N/A   Mostly Cloudy
6:55 AM -10.8 °F -26.0 °F -19.8 °F 64% 30.39 in 10.0 mi West 6.9 mph - N/A   Scattered Clouds
7:15 AM -11.2 °F -27.8 °F -21.1 °F 62% 30.40 in 10.0 mi West 8.1 mph 18.4 mph N/A   Clear
7:35 AM -11.2 °F -27.8 °F -21.5 °F 60% 30.41 in 10.0 mi WNW 8.1 mph 16.1 mph N/A   Clear
7:55 AM -11.0 °F -27.6 °F -21.3 °F 61% 30.42 in 10.0 mi WNW 8.1 mph - N/A   Clear
8:15 AM -10.5 °F -25.6 °F -20.7 °F 61% 30.42 in 10.0 mi West 6.9 mph - N/A   Scattered Clouds
8:35 AM -9.6 °F -27.0 °F -20.2 °F 60% 30.42 in 10.0 mi West 9.2 mph - N/A   Scattered Clouds
8:55 AM -9.0 °F -26.4 °F -20.4 °F 58% 30.43 in 10.0 mi WNW 9.2 mph 18.4 mph N/A   Mostly Cloudy
9:15 AM -8.7 °F -24.7 °F -21.1 °F 55% 30.43 in 10.0 mi West 8.1 mph 19.6 mph N/A   Mostly Cloudy
9:35 AM -8.5 °F -29.5 °F -21.3 °F 54% 30.43 in 10.0 mi WNW 13.8 mph 23.0 mph N/A   Mostly Cloudy
9:55 AM -8.1 °F -27.3 °F -19.5 °F 58% 30.43 in 10.0 mi West 11.5 mph 20.7 mph N/A   Overcast
10:15 AM -7.6 °F -28.3 °F -18.6 °F 59% 30.43 in 7.0 mi West 13.8 mph 18.4 mph N/A   Overcast
10:35 AM -8.0 °F -28.8 °F -19.8 °F 56% 30.43 in 10.0 mi WNW 13.8 mph 25.3 mph N/A   Mostly Cloudy
10:55 AM -6.7 °F -26.4 °F -19.3 °F 54% 30.42 in 10.0 mi West 12.7 mph 18.4 mph N/A   Overcast
11:15 AM -6.3 °F -25.9 °F -19.7 °F 53% 30.41 in 10.0 mi West 12.7 mph 21.9 mph N/A   Mostly Cloudy
11:35 AM -5.8 °F -19.9 °F -19.3 °F 52% 30.41 in 10.0 mi WNW 6.9 mph 23.0 mph N/A   Mostly Cloudy
11:55 AM -4.7 °F -23.0 °F -18.2 °F 52% 30.40 in 10.0 mi WNW 11.5 mph 20.7 mph N/A   Mostly Cloudy
12:15 PM -4.9 °F -23.2 °F -17.5 °F 55% 30.39 in 5.0 mi West 11.5 mph 19.6 mph N/A   Haze
12:35 PM -5.1 °F -24.3 °F -17.3 °F 56% 30.39 in 7.0 mi WNW 12.7 mph 23.0 mph N/A   Mostly Cloudy
12:55 PM -4.9 °F -22.3 °F -17.9 °F 54% 30.39 in 10.0 mi West 10.4 mph 25.3 mph N/A   Mostly Cloudy
1:15 PM -4.2 °F -23.2 °F -17.9 °F 52% 30.39 in 10.0 mi West 12.7 mph 23.0 mph N/A   Mostly Cloudy
1:35 PM -4.0 °F -24.5 °F -18.0 °F 51% 30.39 in 10.0 mi West 15.0 mph 25.3 mph N/A   Mostly Cloudy
1:55 PM -3.6 °F -22.5 °F -17.3 °F 52% 30.40 in 10.0 mi West 12.7 mph 23.0 mph N/A   Mostly Cloudy
2:15 PM -2.7 °F -22.1 °F -17.0 °F 51% 30.40 in 10.0 mi West 13.8 mph 20.7 mph N/A   Overcast
2:35 PM -3.3 °F -22.8 °F -17.1 °F 52% 30.40 in 10.0 mi WNW 13.8 mph 23.0 mph N/A   Mostly Cloudy
2:55 PM -2.7 °F -20.5 °F -16.8 °F 51% 30.41 in 10.0 mi WNW 11.5 mph 21.9 mph N/A   Scattered Clouds
3:15 PM -3.1 °F -19.1 °F -17.3 °F 51% 30.41 in 10.0 mi West 9.2 mph 19.6 mph N/A   Scattered Clouds
3:35 PM -4.0 °F -23.0 °F -17.3 °F 53% 30.42 in 10.0 mi West 12.7 mph 19.6 mph N/A   Scattered Clouds
3:55 PM -4.2 °F -19.3 °F -15.9 °F 57% 30.42 in 10.0 mi West 8.1 mph 19.6 mph N/A   Scattered Clouds
4:15 PM -4.5 °F -20.8 °F -15.3 °F 60% 30.42 in 10.0 mi West 9.2 mph - N/A   Scattered Clouds
4:35 PM -4.9 °F -23.2 °F -15.5 °F 60% 30.42 in 10.0 mi West 11.5 mph 19.6 mph N/A   Clear
4:55 PM -5.1 °F -17.6 °F -15.9 °F 60% 30.42 in 10.0 mi West 5.8 mph - N/A   Clear
5:15 PM -5.4 °F -18.0 °F -15.7 °F 61% 30.42 in 10.0 mi West 5.8 mph - N/A   Clear
5:35 PM -5.3 °F -20.6 °F -15.7 °F 61% 30.43 in 10.0 mi West 8.1 mph - N/A   Clear
5:55 PM -5.3 °F -19.3 °F -15.9 °F 60% 30.43 in 10.0 mi West 6.9 mph - N/A   Clear
6:15 PM -5.4 °F -16.2 °F -15.7 °F 61% 30.43 in 10.0 mi West 4.6 mph - N/A   Clear
6:35 PM -5.4 °F -16.2 °F -15.7 °F 61% 30.44 in 10.0 mi West 4.6 mph - N/A   Clear
6:55 PM -6.0 °F -14.7 °F -15.9 °F 62% 30.44 in 10.0 mi WSW 3.5 mph - N/A   Clear
7:15 PM -6.0 °F -21.5 °F -15.9 °F 62% 30.45 in 10.0 mi WSW 8.1 mph - N/A   Clear
7:35 PM -6.0 °F -16.9 °F -15.7 °F 63% 30.44 in 10.0 mi WSW 4.6 mph - N/A   Clear
7:55 PM -6.0 °F -18.6 °F -15.7 °F 63% 30.44 in 10.0 mi WSW 5.8 mph - N/A   Clear
8:15 PM -5.8 °F -18.4 °F -15.9 °F 62% 30.44 in 10.0 mi WSW 5.8 mph - N/A   Clear
8:35 PM -6.0 °F -16.9 °F -16.1 °F 62% 30.44 in 10.0 mi WSW 4.6 mph - N/A   Clear
8:55 PM -6.9 °F -15.7 °F -16.6 °F 63% 30.44 in 10.0 mi WSW 3.5 mph - N/A   Clear
9:15 PM -6.9 °F -17.9 °F -16.6 °F 63% 30.44 in 10.0 mi WSW 4.6 mph - N/A   Clear
9:35 PM -7.6 °F -16.5 °F -16.8 °F 64% 30.44 in 10.0 mi SW 3.5 mph - N/A   Clear
9:55 PM -8.1 °F -17.1 °F -17.0 °F 65% 30.44 in 10.0 mi WSW 3.5 mph - N/A   Clear
10:15 PM -8.0 °F -19.2 °F -16.8 °F 65% 30.43 in 10.0 mi WSW 4.6 mph - N/A   Clear
10:35 PM -8.0 °F -16.9 °F -16.6 °F 66% 30.43 in 10.0 mi SW 3.5 mph - N/A   Clear
10:55 PM -6.7 °F -21.0 °F -15.9 °F 64% 30.43 in 10.0 mi WSW 6.9 mph - N/A   Clear
11:15 PM -6.0 °F -18.6 °F -15.7 °F 63% 30.42 in 10.0 mi WSW 5.8 mph - N/A   Clear
11:35 PM -6.0 °F -18.6 °F -15.7 °F 63% 30.42 in 10.0 mi WSW 5.8 mph - N/A   Clear
11:55 PM -6.5 °F -20.8 °F -15.7 °F 64% 30.42 in 10.0 mi WSW 6.9 mph - N/A   Clear